Location: Via Auriletto, 13, 10098 Rivoli TO, Italia
(45.0746°N, 7.5214°E)
Time: 13:44:31
(UTC+02:00)

BEESAT 2 - Visible Passes

Search period start: 20 May 2019 00:00
Search period end: 30 May 2019 00:00
Orbit: 503 x 527 km, 64.9° (Epoch: 18 May)

Date Brightness Start Highest point End Pass type
(mag) Time Alt. Az. Time Alt. Az. Time Alt. Az.
20 May ? 03:33:51 10° N 03:36:41 18° NE 03:39:30 10° E visible
20 May ? 05:10:46 10° NW 05:14:43 64° WSW 05:18:37 10° SSE visible
20 May ? 22:20:17 10° WNW 22:21:58 12° NNW 22:23:39 10° N visible
21 May ? 03:17:58 10° N 03:20:49 18° NE 03:23:40 10° E visible
21 May ? 04:54:53 10° NW 04:58:50 62° WSW 05:02:45 10° SSE visible
21 May ? 22:04:29 10° WNW 22:06:06 12° NNW 22:07:44 10° N visible
22 May ? 03:02:05 10° N 03:04:58 19° NE 03:07:49 10° E visible
22 May ? 04:39:01 10° NW 04:42:57 61° WSW 04:46:52 10° SSE visible
22 May ? 21:48:40 10° WNW 21:50:15 12° NNW 21:51:50 10° N visible
23 May ? 02:46:12 10° N 02:49:06 19° NE 02:51:59 10° E visible
23 May ? 04:23:09 10° NW 04:27:05 60° WSW 04:30:59 10° SSE visible
24 May ? 02:30:19 10° N 02:33:13 19° NE 02:36:08 10° E visible
24 May ? 04:07:16 10° NW 04:11:12 59° WSW 04:15:06 10° SSE visible
25 May ? 02:14:25 10° N 02:17:21 19° NE 02:20:17 10° E visible
25 May ? 03:51:24 10° NW 03:55:20 58° WSW 03:58:32 15° SSE visible
26 May ? 01:58:32 10° N 02:01:29 20° NE 02:04:26 10° E visible
26 May ? 03:35:32 10° NW 03:39:27 57° WSW 03:41:03 32° S visible
27 May ? 01:42:38 10° N 01:45:37 20° NE 01:48:35 10° E visible
27 May ? 03:19:39 10° NW 03:23:33 56° WSW 03:24:12 48° SSW visible
28 May ? 01:26:44 10° N 01:29:44 20° NE 01:32:44 10° E visible
28 May ? 03:03:47 10° NW 03:07:40 55° WSW 03:07:43 55° WSW visible
29 May ? 01:10:50 10° N 01:13:51 20° NE 01:16:30 12° E visible
29 May ? 02:47:54 10° NW 02:51:25 51° W 02:51:25 51° W visible
